Other Public Products
Issued by NWS Grand Forks, ND

Home | Current Version | Previous Version | Graphics & Text | Print | Product List | Glossary On
Versions: 1 2 3 4 5 6 7 8 9 10 11 12 13 14 15 16 17 18 19 20 21 22 23 24 25 26 27 28 29 30 31 32 33 34 35 36 37 38 39 40 41 42 43 44 45 46 47 48 49 50
000
FPUS83 KFGF 251610
OPUFGF
PRAIRIE TO PINES WEATHER ROUNDUP
NATIONAL WEATHER SERVICE EASTERN NORTH DAKOTA/GRAND FORKS ND
1000 AM CST SUN JAN 25 2015

 **SATELLITE DATA USED TO AUGMENT SKY COVER AT AUTOMATED STATIONS**
 *****  WEATHER ACROSS EASTERN NORTH DAKOTA  *****

CITY           SKY/WX    TMP DP  RH WIND       PRES   REMARKS
GRAND FORKS    MOSUNNY   16   8  71 CALM      30.05S
GRAND FORKS AF SUNNY     15   8  75 NW3       30.05R
GRAND CITY NWS   N/A     14 N/A N/A N2          N/A
BUXTON         NOT AVBL
DEVILS LAKE    CLOUDY    18  10  73 S5        29.99R WCI  11
FARGO          SUNNY     20  13  74 N9        30.03F WCI   9
WAHPETON ARPT  SUNNY     21  16  79 N10       30.04R WCI  10
$$

 *****  WEATHER ACROSS CENTRAL AND WESTERN NORTH DAKOTA  *****

CITY           SKY/WX    TMP DP  RH WIND       PRES   REMARKS
JAMESTOWN      CLOUDY    21  16  81 E5        29.99S WCI  15
BISMARCK       CLOUDY    35  32  88 NW6       30.01R
MINOT          CLOUDY    23  19  85 W5        29.97R WCI  17
MINOT AFB      CLOUDY    22  21  98 W2        29.97F
GARRISON         N/A     32  30  92 N5        29.97R
WILLISTON      CLOUDY    33  29  85 SW6       29.98F
DICKINSON      CLOUDY    33  28  81 W12       29.96S WCI  24
HETTINGER      CLOUDY    33  27  78 NW9       30.00F
$$

 *****  OTHER OBSERVATIONS NORTHEAST NORTH DAKOTA  *****

CITY           SKY/WX    TMP DP  RH WIND       PRES   REMARKS
WALHALLA         N/A     16  12  86 CALM      30.03S
LANGDON        FAIR      16   9  73 CALM      29.97R
CAVALIER       FAIR      16  10  79 S3        30.04R
GRAFTON        NOT AVBL
CANDO          CLOUDY    18  12  79 SW6       30.01R WCI   9
FORT TOTTEN      N/A     18  13  82 S5        29.95  WCI  11
ROLLA          CLOUDY    16  16 100 SW8       29.98R WCI   5
RUGBY          CLOUDY    18  14  86 S5        29.99S WCI  11
 ***** THE ABOVE OBSERVATIONS ARE NON NWS ARE NOT QUALITY
        CONTROLLED AND MAY MIS-REPORT RAIN FOR SNOW...
$$

 *****  OTHER OBSERVATIONS SOUTHEAST NORTH DAKOTA *****

CITY           SKY/WX    TMP DP  RH WIND       PRES   REMARKS
COOPERSTOWN    NOT AVBL
VALLEY CITY    NOT AVBL
OAKES            N/A     23  23 100 N6        30.01S WCI  16
GWINNER        SUNNY     21  18  86 N9        30.04R WCI  11
BUFFALO        NOT AVBL
WYNDMERE         N/A     19  16  86 N10         N/A  WCI   8
 ***** THE ABOVE OBSERVATIONS ARE NON NWS ARE NOT QUALITY
       CONTROLLED AND MAY MIS-REPORT RAIN FOR SNOW...
$$

  *****  WEATHER ACROSS NORTHERN MINNESOTA  *****

CITY           SKY/WX    TMP DP  RH WIND       PRES   REMARKS
FLAG ISLAND    CLOUDY     7   0  72 SE3       30.04R
WARROAD        CLOUDY    10   1  67 E6        30.04S WCI   1
ROSEAU         CLOUDY    10   3  72 E6        30.04R WCI   1
HALLOCK        SUNNY     12   5  73 CALM      30.05R
THF RVR FALLS  PTSUNNY   10   5  79 E5        30.02R WCI   2
HALSTAD          N/A     19  10  70 N5          N/A  WCI  12
FOSSTON        SUNNY     16   9  73 CALM      30.00S
BAUDETTE       CLOUDY     6  -1  73 E6        30.02S WCI  -4
WASKISH        CLOUDY    12   5  73 CALM      30.02R
CROOKSTON      SUNNY     16   9  73 CALM      30.05S
$$
  *****  WEATHER ACROSS CENTRAL AND WEST MINNESOTA  *****

CITY           SKY/WX    TMP DP  RH WIND       PRES   REMARKS
BEMIDJI        CLOUDY    17  10  77 SE6       29.99R WCI   8
PARK RAPIDS    CLOUDY    22  14  71 E5        29.98R WCI  16
WADENA         CLOUDY    23  18  80 E5        29.99S WCI  17
DETROIT LAKES  SUNNY     23  18  80 CALM      30.00R
MOORHEAD       SUNNY     19  16  86 N7        30.04R WCI  10
FERGUS FALLS   PTSUNNY   23  18  80 N5        30.04R WCI  17
ELBOW LAKE     CLOUDY    22  20  92 N6        30.00R WCI  14
MORRIS MN      CLOUDY    25  21  86 NW15      30.00R WCI  12
STAPLES        CLOUDY    21  14  73 NE3       30.00R
WHEATON        CLOUDY    19  16  86 NW9       30.05R WCI   9
$$
  *****  WEATHER ELSEWHERE ACROSS MINNESOTA  *****

CITY           SKY/WX    TMP DP  RH WIND       PRES   REMARKS
DULUTH         LGT SNOW  19  13  77 NE10      30.00R WCI   7
INTRNTL FALLS  CLOUDY     4  -4  69 E6        30.05R WCI  -7
ELY            LGT SNOW   1  -2  85 CALM      30.05R
CLOQUET        LGT SNOW  19  14  79 E5        30.00R WCI  13
BRAINERD       MOSUNNY   20  13  74 NE3       30.02R
HIBBING        PTSUNNY   16   8  71 E3        30.01R
ALEXANDRIA     CLOUDY    26  21  81 E7        29.99R WCI  18
SAINT CLOUD    CLOUDY    21  13  71 VRB6      30.02R WCI  13
MINNEAPOLIS    CLOUDY    21  12  68 NE12G21   30.00R WCI   9
$$

  *****  WEATHER ACROSS SOUTH DAKOTA  *****

CITY           SKY/WX    TMP DP  RH WIND       PRES   REMARKS
SIOUX FALLS    CLOUDY    33  31  92 N8        29.98R
BROOKINGS      NOT AVBL
WATERTOWN      CLOUDY    28  24  85 N9        29.96R WCI  19
HURON          CLOUDY    30  28  92 N7        30.02R WCI  23
SISSETON         N/A     23  19  85 N14       30.02R WCI  11
ABERDEEN       CLOUDY    27  23  85 NE7       30.02R WCI  19
MITCHELL       CLOUDY    32  30  92 NW8       30.02R WCI  25
PIERRE         CLOUDY    37  31  78 NW15      30.02R
MOBRIDGE       CLOUDY    37  34  89 NW7       29.97S
RAPID CITY     SUNNY     36  23  59 VRB6      30.05R
$$

  *****  SOME WEATHER IN NEARBY STATES *****

CITY           SKY/WX    TMP DP  RH WIND       PRES   REMARKS
GLASGOW MT     PTCLDY    32  27  81 SE9       29.92F WCI  24
GREAT FALLS MT CLOUDY    52  36  54 SW23      29.95R
CHEYENNE WY    CLOUDY    41  25  53 NW15G23   30.13S
SCOTTSBLUFF NE CLOUDY    36  29  75 N9        30.14R
OMAHA NE       CLOUDY    36  33  89 N18       29.90R
DES MOINES IA  LGT SNOW  34  31  88 NE15      29.81R VSB 3/4 WCI  24
DAVENPORT IA   LGT SNOW  29  26  89 NE21      29.77R VSB 3/4 WCI  16
CHICAGO IL     LGT SNOW  31  29  92 NE15G26   29.78R FOG     WCI  20
EAU CLAIRE WI  MOSUNNY   19   9  65 NE13      29.99R WCI   6
LA CROSSE WI   CLOUDY    27  16  63 VRB6      29.95R WCI  20
$$

  *****  SOME NATIONAL WEATHER *****

CITY           SKY/WX    TMP DP  RH WIND       PRES   REMARKS
LA GUARDIA NY  PTSUNNY   41  27  57 NW14      29.74S
RALEIGH NC     MOSUNNY   48  32  53 S6        29.95F
ATLANTA GA     MOSUNNY   49  32  52 W9        29.93F
NEW ORLEANS LA MOSUNNY   57  43  59 SW13      30.03F
OKLAHOMA CITY  SUNNY     52  29  41 NW30G38   30.00R
ALBUQUERQUE NM MOSUNNY   34  20  56 NW6       30.32R
SALT LAKE CITY PTSUNNY   35  29  78 CALM      30.47R
LOS ANGELES CA MOSUNNY   56  33  42 CALM      30.03S
BOISE ID       PTCLDY    29  26  89 CALM      30.48R
SEATTLE WA     CLOUDY    51  50  96 CALM      30.19F FOG
$$

*** WEATHER ACROSS MANITOBA...SASKATCHEWAN AND ONTARIO ***
                ***ONTARIO***

CITY           SKY/WX    TMP DP  RH WIND       PRES   REMARKS
GERALDTON      MOSUNNY  -11 -15  84 CALM      30.09R
THUNDER BAY      N/A     -2  -9  71 SW5       30.17R WCI -12
SIOUX LOOKOUT  CLOUDY    -6 -11  77 S7        30.08R WCI -20
TORONTO        MOSUNNY   14   1  57 N13       29.95R WCI   0
BIG TROUT LK   SUNNY    -20 -24  83 SW5       30.09F WCI -33
PICKLE LAKE    MOSUNNY   -9 -17  70 S6        30.07S WCI -23
DRYDEN         CLOUDY     0  -6  78 SE5       30.06R WCI -10
KENORA         CLOUDY     3  -6  66 SE5       30.03R WCI  -6
$$
                *** MANITOBA***

CITY           SKY/WX    TMP DP  RH WIND       PRES   REMARKS
BRANDON        CLOUDY    12  10  92 SW13      29.99S FOG     WCI  -3
DAUPHIN        PTSUNNY   16  12  86 W8        29.95R WCI   5
ISLAND LAKE    PTSUNNY   -8 -13  77 SE7       29.97F WCI -22
PILOT MOUND      N/A     14  10  85 SW7         N/A  WCI   4
THE PAS        CLOUDY     9   5  85 S10       29.81F WCI  -6
THOMPSON         N/A      0  -6  78 S6        29.86F WCI -12
WINNIPEG       PTSUNNY   16   7  67 S9        30.04S WCI   4
LYNN LAKE      LGT SNOW   1   0  92 S7        29.69F WCI -11
CHURCHILL      MOCLDY   -24 -29  76 S8        29.99F WCI -43
GILLAM         CLOUDY   -11 -17  77 SE5       29.96F WCI -23
$$
                ***SASKATCHEWAN***

CITY           SKY/WX    TMP DP  RH WIND       PRES   REMARKS
ESTEVAN        CLOUDY    25  23  93 SW8       29.95  WCI  16
KINDERSLEY     MOCLDY    30  25  80 S12       29.73F WCI  21
LLOYDMINSTER   CLOUDY    37  28  70 SW16      29.60F
PRINCE ALBERT  CLOUDY    30  27  86 SW8       29.71F WCI  23
REGINA         FOG       25  25 100 SE12      29.90F VSB 3/4 WCI  14
YORKTON        CLEAR     16  14  93 S10       29.89F WCI   3



USA.gov is the U.S. government's official web portal to all federal, state and local government web resources and services.